Erzurum, Turkey

7:58 AM +03 on January 19, 2018 (GMT +0300)
Erzurum

Weather History for LTCE - August, 2013

Change the Weather History Date:

Wednesday, August 14, 2013

  Actual Average Record
Temperature  
Mean Temperature 67 °F -  
Max Temperature 84 °F 76 °F 93 °F (2006)
Min Temperature 50 °F 49 °F 42 °F (2004)
Cooling Degree Days 2    
Growing Degree Days 17 (Base 50)    
Moisture  
Dew Point 48 °F    
Average Humidity 50    
Maximum Humidity 94    
Minimum Humidity 20    
Precipitation  
Precipitation 0.00 in 0.03 in - ()
Sea Level Pressure  
Sea Level Pressure 30.04 in    
Wind  
Wind Speed 7 mph ()    
Max Wind Speed 17 mph    
Max Gust Speed -    
Visibility 6.8 miles    
Events      
Averages and records for this station are not official NWS values.
T = Trace of Precipitation, MM = Missing Value Source: Averaged Metar Reports

Daily Weather History Graph

Daily Weather History Graph

Search for Another Location

Airport or City:

Trip Planner

Search our weather history database for the weather conditions in past years. The results will help you decide how hot, cold, wet, or windy it might be!

Date:

Astronomy

Aug. 14, 2013 Rise Set
Actual Time 5:25 AM EEST 7:13 PM EEST
Civil Twilight 4:56 AM EEST 7:42 PM EEST
Nautical Twilight 4:21 AM EEST 8:17 PM EEST
Astronomical Twilight 3:43 AM EEST 8:55 PM EEST
Moon 1:01 PM EEST (8/14) 11:18 PM EEST (8/14)
Length of Visible Light 14h 45m
Length of Day
13h 47m
Waxing Crescent, 49% of the Moon is Illuminated
Aug 14
Waxing Crescent
Aug 14
First Quarter
Aug 21
Full
Aug 28
Last Quarter
Sep 5
New

Hourly Weather History & Observations

Time (EEST) Temp. Dew Point Humidity Pressure Visibility Wind Dir Wind Speed Gust Speed Precip Events Conditions
12:20 AM 62.6 °F 51.8 °F 68% 30.06 in - ENE 12.7 mph - N/A   Clear
12:50 AM 62.6 °F 51.8 °F 68% 30.06 in - ENE 12.7 mph - N/A   Clear
1:20 AM 60.8 °F 51.8 °F 72% 30.06 in - ENE 11.5 mph - N/A   Clear
1:50 AM 59.0 °F 51.8 °F 77% 30.06 in - NE 6.9 mph - N/A   Clear
2:20 AM 57.2 °F 51.8 °F 82% 30.06 in - ENE 6.9 mph - N/A   Clear
2:50 AM 57.2 °F 51.8 °F 82% 30.06 in - NE 6.9 mph - N/A   Clear
3:00 AM 57 °F 51 °F 76%  in 12 mi NE 6.9 mph - -  
3:20 AM 55.4 °F 51.8 °F 88% 30.06 in - NE 4.6 mph - N/A   Clear
3:50 AM 55.4 °F 51.8 °F 88% 30.06 in - NE 5.8 mph - N/A   Clear
4:20 AM 53.6 °F 51.8 °F 94% 30.06 in - NE 5.8 mph - N/A   Clear
4:50 AM 55.4 °F 51.8 °F 88% 30.06 in - ENE 6.9 mph - N/A   Clear
5:20 AM 51.8 °F 50.0 °F 94% 30.09 in - Variable 2.3 mph - N/A   Clear
5:50 AM 51.8 °F 48.2 °F 88% 30.09 in - SSW 3.5 mph - N/A   Clear
6:20 AM 53.6 °F 50.0 °F 88% 30.09 in - Variable 2.3 mph - N/A   Clear
6:50 AM 57.2 °F 50.0 °F 77% 30.09 in - South 3.5 mph - N/A   Clear
7:20 AM 59.0 °F 50.0 °F 72% 30.09 in - Variable 1.2 mph - N/A   Clear
7:50 AM 64.4 °F 51.8 °F 64% 30.09 in - Variable 2.3 mph - N/A   Clear
8:20 AM 68.0 °F 50.0 °F 52% 30.09 in - East 9.2 mph - N/A   Clear
8:50 AM 68.0 °F 50.0 °F 52% 30.09 in - East 9.2 mph - N/A   Clear
9:00 AM 68 °F 50 °F 41%  in 12 mi East 9.2 mph - -  
9:20 AM 69.8 °F 50.0 °F 49% 30.09 in - East 10.4 mph - N/A   Clear
9:50 AM 71.6 °F 50.0 °F 46% 30.09 in - ENE 9.2 mph - N/A   Clear
10:20 AM 71.6 °F 50.0 °F 46% 30.06 in 6.2 mi East 12.7 mph - N/A   Partly Cloudy
10:50 AM 73.4 °F 48.2 °F 41% 30.06 in 6.2 mi East 13.8 mph - N/A   Partly Cloudy
11:20 AM 75.2 °F 48.2 °F 38% 30.06 in 6.2 mi East 11.5 mph - N/A   Partly Cloudy
11:50 AM 77.0 °F 48.2 °F 36% 30.04 in 6.2 mi East 10.4 mph - N/A   Partly Cloudy
12:20 PM 78.8 °F 48.2 °F 34% 30.04 in 6.2 mi ENE 10.4 mph - N/A   Partly Cloudy
12:50 PM 80.6 °F 46.4 °F 30% 30.04 in 6.2 mi East 9.2 mph - N/A   Scattered Clouds
1:20 PM 82.4 °F 42.8 °F 25% 30.04 in 6.2 mi NE 6.9 mph - N/A   Scattered Clouds
1:50 PM 82.4 °F 41.0 °F 23% 30.01 in 6.2 mi Variable 3.5 mph - N/A   Scattered Clouds
2:20 PM 80.6 °F 42.8 °F 26% 30.01 in 6.2 mi NNW 5.8 mph - N/A   Scattered Clouds
2:50 PM 84.2 °F 42.8 °F 23% 30.01 in 6.2 mi Variable 5.8 mph - N/A   Scattered Clouds
3:20 PM 84.2 °F 42.8 °F 23% 30.01 in 6.2 mi Variable 2.3 mph - N/A   Scattered Clouds
3:50 PM 84.2 °F 41.0 °F 22% 29.98 in 6.2 mi NE 6.9 mph - N/A   Scattered Clouds
4:20 PM 84.2 °F 41.0 °F 22% 29.98 in 6.2 mi NNW 4.6 mph - N/A   Scattered Clouds
4:50 PM 84.2 °F 39.2 °F 20% 29.98 in 6.2 mi ENE 3.5 mph - N/A   Scattered Clouds
5:20 PM 84.2 °F 41.0 °F 22% 29.98 in 6.2 mi Variable 4.6 mph - N/A   Scattered Clouds
5:50 PM 82.4 °F 39.2 °F 21% 29.98 in 6.2 mi NNW 3.5 mph - N/A   Scattered Clouds
6:20 PM 82.4 °F 41.0 °F 23% 29.98 in 6.2 mi WNW 3.5 mph - N/A   Scattered Clouds
6:50 PM 80.6 °F 41.0 °F 24% 29.98 in 6.2 mi Variable 2.3 mph - N/A   Scattered Clouds
7:20 PM 77.0 °F 44.6 °F 32% 30.01 in 6.2 mi Variable 1.2 mph - N/A   Scattered Clouds
7:50 PM 75.2 °F 42.8 °F 31% 30.01 in 6.2 mi East 5.8 mph - N/A   Scattered Clouds
8:20 PM 69.8 °F 48.2 °F 46% 30.01 in 6.2 mi East 6.9 mph - N/A   Scattered Clouds
8:50 PM 73.4 °F 46.4 °F 38% 30.01 in 6.2 mi East 9.2 mph - N/A   Scattered Clouds
9:00 PM 73 °F 46 °F 27%  in 12 mi East 9.2 mph - -   Partly Cloudy
9:20 PM 69.8 °F 48.2 °F 46% 30.04 in 6.2 mi East 11.5 mph - N/A   Scattered Clouds
9:50 PM 73.4 °F 46.4 °F 38% 30.04 in 6.2 mi ENE 17.3 mph - N/A   Scattered Clouds
10:50 PM 69.8 °F 50.0 °F 49% 30.04 in 6.2 mi ENE 17.3 mph - N/A   Partly Cloudy
11:20 PM 69.8 °F 51.8 °F 53% 30.04 in 6.2 mi ENE 16.1 mph - N/A   Partly Cloudy
11:50 PM 68.0 °F 51.8 °F 56% 30.04 in 6.2 mi ENE 15.0 mph - N/A   Partly Cloudy